Regional Weather Roundup
Issued by NWS Midland/Odessa, TX

Home | Current Version | Previous Version | Text Only | Print | Product List | Glossary On
Versions: 1 2 3 4 5 6 7 8 9 10 11 12 13 14 15 16 17 18 19 20 21 22 23 24 25 26 27 28 29 30 31 32 33 34 35 36 37 38 39 40 41 42 43 44 45 46 47 48 49 50
000
ASUS44 KMAF 282110
RWRMAF
MIDLAND AREA WEATHER ROUNDUP
NATIONAL WEATHER SERVICE MIDLAND TX
400 PM CDT SUN MAY 28 2017

...IN SOUTHWEST TEXAS AND SOUTHEAST NEW MEXICO...

CITY           SKY/WX    TMP DP  RH WIND       PRES   REMARKS
ALPINE         SUNNY     78  49  35 NE10G22   30.19F
ANDREWS        FAIR      82  45  26 NE15G24   30.09F
ARTESIA        SUNNY     81  41  24 NE7G14    30.13F
BIG SPRING     CLOUDY    79  50  35 NE16G25   30.09F
CARLSBAD       SUNNY     83  41  22 NE8G21    30.09F
DRYDEN           N/A     91  61  36 N15G23    29.94F
FORT STOCKTON  SUNNY     84  53  34 NE13G21   30.05F
GUAD PASS      SUNNY     74  41  30 NE26G39   30.19S
HOBBS          MOSUNNY   81  39  22 NE14G23   30.12F
MARFA          SUNNY     80  48  32 NE18G28   30.14F
MIDLAND AIRPK  MOSUNNY   86  46  24 E17G23    30.07F
MIDLAND INTL   PTSUNNY   83  48  29 E20       30.07S
ODESSA         MOSUNNY   85  44  23 E14G28    30.08F
PECOS          SUNNY     87  46  24 NE14G23   30.04F
PRESIDIO       FAIR      94  48  20 N10G24    29.96F
SEMINOLE       SUNNY     83  43  24 NE12G20   30.11F
SNYDER         CLOUDY    80  52  37 E13G20    30.09S
WINK           SUNNY     88  44  21 E15G30    30.04F
$$
...OTHER STATIONS IN TEXAS...

CITY           SKY/WX    TMP DP  RH WIND       PRES   REMARKS
ABILENE        CLOUDY    73  61  65 NE16G23   30.03F THUNDER
AMARILLO       SUNNY     76  37  24 N16       30.18F
AUSTIN         CLOUDY    93  73  52 S9        29.87F HX 102
BROWNSVILLE    CLOUDY    91  77  63 SE17      29.83F HX 104
CORPUS CHRISTI CLOUDY    86  78  77 E17G26    29.86F
DALLAS FTW     CLOUDY    75  69  81 N12G22    29.97F
DEL RIO        CLOUDY    88  74  63 S8        29.84F
EL PASO        MOSUNNY   86  31  13 E12G17    30.06F
HOUSTON INT    CLOUDY    89  74  60 SE17      29.90F
LUBBOCK        MOSUNNY   84  38  19 E12       30.11F
SAN ANGELO     CLOUDY    80  59  48 N18       30.01S
SAN ANTONIO    PTSUNNY   90  72  55 SE14      29.86F
WACO           PTSUNNY   83  72  69 N15       29.92R THUNDER
WICHITA FALLS  NOT AVBL
$$
...OTHER LOCATIONS IN NEW MEXICO...

CITY           SKY/WX    TMP DP  RH WIND       PRES   REMARKS
ALAMOGORDO     SUNNY     84  32  15 W7G17     30.09F
ALBUQUERQUE    MOSUNNY   76  26  15 VRB6      30.19F
CANNON AFB     SUNNY     77  33  20 NE10      30.19F
CLOVIS         SUNNY     77  36  22 NE15      30.19F
HOLLOMAN AFB   SUNNY     84  32  15 SW5       30.12F
ROSWELL        SUNNY     83  38  20 E7        30.13F
RUIDOSO        SUNNY     66  32  28 SE10G17   30.31F
SANTA FE       SUNNY     74  27  17 VRB3G20   30.24F
TRUTH OR CONSE LGT RAIN  82  30  15 VRB3      30.11F
TUCUMCARI      SUNNY     79  33  19 VRB6      30.17F
$$



USA.gov is the U.S. government's official web portal to all federal, state and local government web resources and services.